Location: ???????????
(55.5758°N, 38.4970°E)
Time: 18:25:08
(UTC+00:00)

USA 267 - Pass Details

Date: 15 November 2025
Orbit: 1100 x 1108 km, 123.0° (Epoch: 21 November)

Event Time Altitude Azimuth Distance (km) Brightness Sun altitude
Rises 03:15:01 0° 68° (ENE) 3,926 7.2 -14.6°
Reaches altitude 10° 03:17:30 10° 70° (ENE) 2,966 6.4 -14.2°
Maximum altitude 03:24:05 79° 158° (SSE) 1,125 3.4 -13.3°
Drops below altitude 10° 03:30:38 10° 245° (WSW) 2,956 5.1 -12.4°
Enters shadow 03:31:26 - 246° (WSW) 3,268 5.3 -12.3°
